Location: Alliance Post Office
(35.1446°N, 76.8030°W)
Time: 18:36:41
(UTC+00:00)

Daily predictions for brighter satellites

Satellite Brightness Start Highest point End
(mag) Time Altitude Azimuth Time Altitude Azimuth Time Altitude Azimuth
Cosmos 44 Rocket 4.4 23:26:11 10° NW 23:31:16 54° WSW 23:36:15 10° S
Cosmos 1703 Rocket 4.0 23:33:48 10° N 23:37:52 37° E 23:41:52 10° SSE
Cosmos 1933 Rocket 3.6 23:34:03 10° S 23:38:24 88° WNW 23:42:47 10° N
Okean-O 3.0 23:34:17 10° SE 23:38:27 43° ENE 23:42:38 10° N
Aureole 2 Rocket 3.5 23:36:56 10° NW 23:39:13 34° WSW 23:41:27 10° S
NOSS 3-2 (A) 3.6 23:35:44 10° S 23:40:49 44° ESE 23:46:25 10° NE
Cosmos 1500 3.9 23:38:55 10° SSW 23:42:34 57° W 23:46:15 10° N
SL-8 Rocket 4.2 23:37:54 10° SSE 23:43:52 50° E 23:49:48 10° NNE
CZ-2C R/B 3.8 23:38:49 10° S 23:44:28 65° WSW 23:49:55 10° NNW
Cosmos 2322 3.9 23:41:31 10° SSW 23:47:14 81° WNW 23:52:58 10° NNE
CSL-04 Rocket 4.3 23:42:19 10° SE 23:47:17 35° ENE 23:52:15 10° N
Okean O Rocket 4.4 23:47:32 10° SSW 23:51:00 23° W 23:54:29 10° NW
H-2A R/B 2.1 23:45:54 10° SSE 23:51:20 76° ENE 23:56:46 10° N
CENTAUR R/B 2.9 23:46:58 10° S 23:51:50 33° ESE 23:57:25 10° NE
